Location: Bruderhein
(53.8035°N, 112.9265°W)
Time: 02:03:31
(UTC+00:00)

STRAND 1 - Pass Details

Date: 05 April 2023
Orbit: 767 x 779 km, 98.4° (Epoch: 31 May)

Event Time Altitude Azimuth Distance (km) Brightness Sun altitude
Rises 02:49:06 0° 14° (NNE) 3,254 ? -6.0°
Reaches altitude 10° 02:51:25 10° 13° (NNE) 2,322 ? -6.3°
Maximum altitude 02:56:32 78° 288° (WNW) 792 ? -7.0°
Drops below altitude 10° 03:01:36 10° 203° (SSW) 2,305 ? -7.7°
Sets 03:03:54 0° 202° (SSW) 3,228 ? -8.0°
